Seven Seas Mariner — C6VV8 — position and weather

sailwx.info

Track history (hours):
 
Tides and Currents Weather Stations Pressure Air Temp Water Temp Dewpoint Dewpoint Depression Visibility Wind Speed Wind Dir Waves Ship Positions

Seven Seas Mariner

Last reported at 2018-May-18 13:36 UTC. Time now 2018-May-20 21:11 UTC.
Position N 55°17' W 131°30'.

Length 216 m; draft 7 m.

Type: Passenger vessel. MMSI: 311622000.

Date/timePositionNaut miles runAvg speedWind from/ knotsBaromVisibWave heightAir tempDewpointWater temp
2018-May-18 13:36N 55°17' W 131°30'318.8
2018-May-18 13:25N 55°14' W 131°26'2312.8
2018-May-18 11:38N 54°55' W 131°05'213.6
2018-May-18 11:30N 54°53' W 131°04'714.0
2018-May-18 11:00N 54°46' W 131°06'713.3
2018-May-18 10:30N 54°40' W 131°12'612.6
2018-May-18 10:00N 54°35' W 131°16'713.4
2018-May-18 09:30N 54°29' W 131°11'713.7
2018-May-18 09:00N 54°23' W 131°05'713.8
2018-May-18 08:31N 54°16' W 131°03'612.8
2018-May-18 08:00N 54°10' W 131°02'713.3
2018-May-18 07:31N 54°03' W 131°03'714.2
2018-May-18 07:00N 53°56' W 131°01'815.9
2018-May-18 06:31N 53°48' W 130°58'815.8
2018-May-18 06:00N 53°41' W 130°55'815.9
2018-May-18 05:31N 53°33' W 130°52'815.9
2018-May-18 05:01N 53°25' W 130°49'815.9
2018-May-18 04:30N 53°17' W 130°45'815.8
2018-May-18 04:01N 53°10' W 130°41'815.8
2018-May-18 03:30N 53°02' W 130°37'815.5
2018-May-18 03:00N 52°55' W 130°33'612.5
2018-May-18 02:30N 52°49' W 130°29'713.2
2018-May-18 02:00N 52°43' W 130°25'5 9.6
2018-May-18 01:30N 52°38' W 130°23'5 9.4
2018-May-18 01:00N 52°34' W 130°20'5 9.2
2018-May-18 00:30N 52°30' W 130°18'5 9.6
2018-May-18 00:00N 52°25' W 130°15'5 9.7
2018-May-17 23:30N 52°21' W 130°12'510.0
2018-May-17 23:00N 52°16' W 130°09'611.1
2018-May-17 22:30N 52°11' W 130°06'511.1
2018-May-17 22:00N 52°05' W 130°03'715.0
2018-May-17 21:30N 51°59' W 129°58'816.2
2018-May-17 21:00N 51°51' W 129°53'816.1
2018-May-17 20:30N 51°46' W 129°43'816.1
2018-May-17 20:00N 51°41' W 129°33'815.6
2018-May-17 19:30N 51°36' W 129°23'815.7
2018-May-17 19:00N 51°32' W 129°13'816.4
2018-May-17 18:30N 51°27' W 129°03'815.8
2018-May-17 18:00N 51°22' W 128°53'714.9
2018-May-17 17:30N 51°17' W 128°43'715.0
2018-May-17 17:00N 51°13' W 128°34'714.8
2018-May-17 16:30N 51°09' W 128°23'815.3
2018-May-17 16:00N 51°06' W 128°12'815.0
2018-May-17 15:30N 51°02' W 128°02'714.7
2018-May-17 15:00N 50°60' W 127°51'611.7
2018-May-17 14:31N 50°56' W 127°43'1121.0
2018-May-17 14:00N 50°51' W 127°29'1020.1
2018-May-17 13:31N 50°46' W 127°15'1019.7
2018-May-17 13:00N 50°43' W 127°00'919.1
2018-May-17 12:30N 50°38' W 126°47'1016.3
2018-May-17 11:52N 50°31' W 126°36'4617.3
2018-May-17 09:14N 50°20' W 125°26'314.3
2018-May-17 09:00N 50°17' W 125°24'816.7
2018-May-17 08:30N 50°09' W 125°21'611.4
2018-May-17 08:00N 50°05' W 125°16'612.5
2018-May-17 07:30N 49°59' W 125°12'714.8
2018-May-17 07:01N 49°54' W 125°04'714.9
2018-May-17 06:30N 49°49' W 124°55'714.3
2018-May-17 06:00N 49°44' W 124°47'713.0
2018-May-17 05:30N 49°39' W 124°40'713.7
2018-May-17 05:00N 49°33' W 124°33'714.6
2018-May-17 04:30N 49°28' W 124°26'815.1
2018-May-17 04:00N 49°25' W 124°15'714.8
2018-May-17 03:30N 49°23' W 124°04'915.0
2018-May-17 02:53N 49°21' W 123°50'2317.1
2018-May-17 01:34N 49°19' W 123°16'118.1
2018-May-17 01:30N 49°19' W 123°14'511.0
2018-May-17 01:01N 49°17' W 123°06'0 0.5
2018-May-17 00:28N 49°17' W 123°07'0 0.0
2018-May-16 23:58N 49°17' W 123°07'0 0.0
2018-May-16 23:28N 49°17' W 123°07'0 0.0
2018-May-16 22:58N 49°17' W 123°07'0 0.0
2018-May-16 22:28N 49°17' W 123°07'0 0.0
2018-May-16 21:58N 49°17' W 123°07'0 0.0
2018-May-16 21:28N 49°17' W 123°07'0 0.0
2018-May-16 20:58N 49°17' W 123°07'0 0.0
2018-May-16 20:28N 49°17' W 123°07'0 0.0
2018-May-16 19:58N 49°17' W 123°07'0 0.0
2018-May-16 19:28N 49°17' W 123°07'0 0.0
2018-May-16 18:58N 49°17' W 123°07'0 0.0
2018-May-16 18:28N 49°17' W 123°07'0 0.0
2018-May-16 17:55N 49°17' W 123°07'0 0.0
2018-May-16 17:28N 49°17' W 123°07'0 0.0
2018-May-16 16:58N 49°17' W 123°07'0 0.0
2018-May-16 16:28N 49°17' W 123°07'0 0.0
2018-May-16 15:58N 49°17' W 123°07'0 0.0
2018-May-16 15:28N 49°17' W 123°07'0 0.0
2018-May-16 14:58N 49°17' W 123°07'0 0.0
2018-May-16 14:28N 49°17' W 123°07'0 0.1
2018-May-16 14:01N 49°17' W 123°07'1 2.6
2018-May-16 13:31N 49°19' W 123°08'510.6
2018-May-16 13:00N 49°18' W 123°16'4 6.2
2018-May-16 12:23N 49°18' W 123°22'3 7.6
2018-May-16 12:00N 49°18' W 123°26'5 8.1
2018-May-16 11:25N 49°19' W 123°33'4 8.9
2018-May-16 10:58N 49°19' W 123°39'6 8.8
2018-May-16 10:20N 49°20' W 123°48'4 8.8
2018-May-16 09:52N 49°21' W 123°54'4 8.9
2018-May-16 09:24N 49°22' W 123°60'4 8.4
2018-May-16 08:59N 49°23' W 124°05'4 8.6
2018-May-16 08:30N 49°24' W 124°11'4 8.7
2018-May-16 08:00N 49°25' W 124°18'4 8.7
2018-May-16 07:30N 49°26' W 124°24'4 8.7
2018-May-16 07:00N 49°29' W 124°29'4 8.8
2018-May-16 06:30N 49°33' W 124°33'4 8.5
2018-May-16 06:00N 49°36' W 124°37'4 9.0
2018-May-16 05:31N 49°40' W 124°42'4 8.8
2018-May-16 05:00N 49°43' W 124°46'4 8.8
2018-May-16 04:31N 49°46' W 124°51'5 9.1
2018-May-16 04:00N 49°49' W 124°56'5 8.9
2018-May-16 03:30N 49°52' W 125°01'4 8.9
2018-May-16 03:01N 49°55' W 125°06'510.1
2018-May-16 02:31N 49°59' W 125°12'510.9
2018-May-16 02:00N 50°04' W 125°15'612.1
2018-May-16 01:30N 50°08' W 125°21'916.5
2018-May-16 00:59N 50°17' W 125°24'712.5
2018-May-16 00:26N 50°21' W 125°32'614.7
2018-May-15 23:59N 50°22' W 125°42'1615.2
2018-May-15 22:56N 50°28' W 126°06'715.9
2018-May-15 22:30N 50°29' W 126°16'915.9
2018-May-15 21:58N 50°30' W 126°30'813.6
2018-May-15 21:20N 50°34' W 126°41'617.1
2018-May-15 21:00N 50°38' W 126°48'1120.1
2018-May-15 20:28N 50°43' W 127°03'920.0
2018-May-15 20:00N 50°47' W 127°17'1019.7
2018-May-15 19:31N 50°51' W 127°31'1018.9
2018-May-15 19:00N 50°57' W 127°43'611.9
2018-May-15 18:30N 50°60' W 127°51'713.2
2018-May-15 18:00N 51°03' W 128°00'714.4
2018-May-15 17:30N 51°06' W 128°11'815.7
2018-May-15 17:00N 51°09' W 128°22'815.5
2018-May-15 16:30N 51°12' W 128°33'917.6
2018-May-15 16:00N 51°18' W 128°44'1019.3
2018-May-15 15:30N 51°24' W 128°56'918.5
2018-May-15 15:00N 51°29' W 129°08'918.2
2018-May-15 14:30N 51°35' W 129°20'917.9
2018-May-15 14:00N 51°40' W 129°31'918.6
2018-May-15 13:30N 51°46' W 129°43'918.8
2018-May-15 13:00N 51°53' W 129°54'1019.8
2018-May-15 12:30N 52°02' W 130°01'1020.2
2018-May-15 12:00N 52°11' W 130°07'1019.9
2018-May-15 11:30N 52°20' W 130°12'1020.1
2018-May-15 11:00N 52°30' W 130°18'1020.1
2018-May-15 10:30N 52°39' W 130°23'1019.8
2018-May-15 10:00N 52°48' W 130°29'1019.2
2018-May-15 09:30N 52°58' W 130°34'1019.2
2018-May-15 09:00N 53°07' W 130°40'919.0
2018-May-15 08:30N 53°16' W 130°45'918.9
2018-May-15 08:00N 53°25' W 130°48'1018.7
2018-May-15 07:28N 53°34' W 130°52'918.7
2018-May-15 07:00N 53°43' W 130°56'919.0
2018-May-15 06:30N 53°52' W 130°60'1019.5
2018-May-15 06:00N 54°02' W 131°03'1020.1
2018-May-15 05:30N 54°12' W 131°03'1019.5
2018-May-15 05:00N 54°21' W 131°08'918.6
2018-May-15 04:30N 54°29' W 131°15'917.2
2018-May-15 03:58N 54°39' W 131°14'818.0
2018-May-15 03:30N 54°46' W 131°06'  
2018-May-12 04:20N 58°09' W 135°14'2 6.6
2018-May-12 04:00N 58°09' W 135°18'3 6.9
2018-May-12 03:30N 58°09' W 135°24'2 3.1
2018-May-12 02:56N 58°09' W 135°28'1 1.2
2018-May-12 02:30N 58°08' W 135°28'0 0.8
2018-May-12 01:59N 58°08' W 135°28'0 0.5
2018-May-12 01:27N 58°08' W 135°28'0 0.2
2018-May-12 00:54N 58°08' W 135°28'0 0.0
2018-May-11 15:46N 58°08' W 135°28'0 0.1
2018-May-11 15:23N 58°08' W 135°28'0 0.2
2018-May-11 14:59N 58°08' W 135°28'5 9.4
2018-May-11 14:30N 58°12' W 135°26'612.0
2018-May-11 14:00N 58°15' W 135°36'611.9
2018-May-11 13:30N 58°18' W 135°45'611.8
2018-May-11 13:00N 58°19' W 135°56'611.9
2018-May-11 12:30N 58°19' W 136°08'712.7
2018-May-11 11:58N 58°17' W 136°20'  
2018-May-09 01:52N 46°52' W 124°57'819.4
2018-May-09 01:28N 46°45' W 124°49'919.1
2018-May-09 01:00N 46°38' W 124°41'1019.1
2018-May-09 00:31N 46°31' W 124°33'1019.1
2018-May-09 00:01N 46°24' W 124°24'1019.6
2018-May-08 23:30N 46°16' W 124°16'612.9
2018-May-08 23:01N 46°14' W 124°07'713.8
2018-May-08 22:30N 46°13' W 123°57'4 6.8
2018-May-08 21:56N 46°11' W 123°51'0 0.0
2018-May-08 21:25N 46°11' W 123°51'0 0.0
2018-May-08 20:55N 46°11' W 123°51'0 0.0
2018-May-08 20:26N 46°11' W 123°51'0 0.0
2018-May-08 19:55N 46°11' W 123°51'0 0.0
2018-May-08 19:25N 46°11' W 123°51'0 0.0
2018-May-08 18:55N 46°11' W 123°51'0 0.0
2018-May-08 18:25N 46°11' W 123°51'0 0.0
2018-May-08 17:49N 46°11' W 123°51'0 0.0
2018-May-08 17:25N 46°11' W 123°51'0 0.0
2018-May-08 16:49N 46°11' W 123°51'0 0.0
2018-May-08 16:01N 46°11' W 123°51'0 0.0
2018-May-08 15:55N 46°11' W 123°51'0 0.0
2018-May-08 15:25N 46°11' W 123°51'0 0.0
2018-May-08 14:56N 46°11' W 123°51'0 0.0
2018-May-08 14:26N 46°11' W 123°51'0 0.1
2018-May-08 13:55N 46°11' W 123°52'  
Track history (hours):
 
Tides and Currents Weather Stations Pressure Air Temp Water Temp Dewpoint Dewpoint Depression Visibility Wind Speed Wind Dir Waves Ship Positions

Seven Seas Mariner

Last reported at 2018-May-18 13:36 UTC. Time now 2018-May-20 21:11 UTC.
Position N 55°17' W 131°30'.

Length 216 m; draft 7 m.

Type: Passenger vessel. MMSI: 311622000.

Date/timePositionNaut miles runAvg speedWind from/ knotsBaromVisibWave heightAir tempDewpointWater temp
2018-May-18 13:36N 55°17' W 131°30'318.8
2018-May-18 13:25N 55°14' W 131°26'2312.8
2018-May-18 11:38N 54°55' W 131°05'213.6
2018-May-18 11:30N 54°53' W 131°04'714.0
2018-May-18 11:00N 54°46' W 131°06'713.3
2018-May-18 10:30N 54°40' W 131°12'612.6
2018-May-18 10:00N 54°35' W 131°16'713.4
2018-May-18 09:30N 54°29' W 131°11'713.7
2018-May-18 09:00N 54°23' W 131°05'713.8
2018-May-18 08:31N 54°16' W 131°03'612.8
2018-May-18 08:00N 54°10' W 131°02'713.3
2018-May-18 07:31N 54°03' W 131°03'714.2
2018-May-18 07:00N 53°56' W 131°01'815.9
2018-May-18 06:31N 53°48' W 130°58'815.8
2018-May-18 06:00N 53°41' W 130°55'815.9
2018-May-18 05:31N 53°33' W 130°52'815.9
2018-May-18 05:01N 53°25' W 130°49'815.9
2018-May-18 04:30N 53°17' W 130°45'815.8
2018-May-18 04:01N 53°10' W 130°41'815.8
2018-May-18 03:30N 53°02' W 130°37'815.5
2018-May-18 03:00N 52°55' W 130°33'612.5
2018-May-18 02:30N 52°49' W 130°29'713.2
2018-May-18 02:00N 52°43' W 130°25'5 9.6
2018-May-18 01:30N 52°38' W 130°23'5 9.4
2018-May-18 01:00N 52°34' W 130°20'5 9.2
2018-May-18 00:30N 52°30' W 130°18'5 9.6
2018-May-18 00:00N 52°25' W 130°15'5 9.7
2018-May-17 23:30N 52°21' W 130°12'510.0
2018-May-17 23:00N 52°16' W 130°09'611.1
2018-May-17 22:30N 52°11' W 130°06'511.1
2018-May-17 22:00N 52°05' W 130°03'715.0
2018-May-17 21:30N 51°59' W 129°58'816.2
2018-May-17 21:00N 51°51' W 129°53'816.1
2018-May-17 20:30N 51°46' W 129°43'816.1
2018-May-17 20:00N 51°41' W 129°33'815.6
2018-May-17 19:30N 51°36' W 129°23'815.7
2018-May-17 19:00N 51°32' W 129°13'816.4
2018-May-17 18:30N 51°27' W 129°03'815.8
2018-May-17 18:00N 51°22' W 128°53'714.9
2018-May-17 17:30N 51°17' W 128°43'715.0
2018-May-17 17:00N 51°13' W 128°34'714.8
2018-May-17 16:30N 51°09' W 128°23'815.3
2018-May-17 16:00N 51°06' W 128°12'815.0
2018-May-17 15:30N 51°02' W 128°02'714.7
2018-May-17 15:00N 50°60' W 127°51'611.7
2018-May-17 14:31N 50°56' W 127°43'1121.0
2018-May-17 14:00N 50°51' W 127°29'1020.1
2018-May-17 13:31N 50°46' W 127°15'1019.7
2018-May-17 13:00N 50°43' W 127°00'919.1
2018-May-17 12:30N 50°38' W 126°47'1016.3
2018-May-17 11:52N 50°31' W 126°36'4617.3
2018-May-17 09:14N 50°20' W 125°26'314.3
2018-May-17 09:00N 50°17' W 125°24'816.7
2018-May-17 08:30N 50°09' W 125°21'611.4
2018-May-17 08:00N 50°05' W 125°16'612.5
2018-May-17 07:30N 49°59' W 125°12'714.8
2018-May-17 07:01N 49°54' W 125°04'714.9
2018-May-17 06:30N 49°49' W 124°55'714.3
2018-May-17 06:00N 49°44' W 124°47'713.0
2018-May-17 05:30N 49°39' W 124°40'713.7
2018-May-17 05:00N 49°33' W 124°33'714.6
2018-May-17 04:30N 49°28' W 124°26'815.1
2018-May-17 04:00N 49°25' W 124°15'714.8
2018-May-17 03:30N 49°23' W 124°04'915.0
2018-May-17 02:53N 49°21' W 123°50'2317.1
2018-May-17 01:34N 49°19' W 123°16'118.1
2018-May-17 01:30N 49°19' W 123°14'511.0
2018-May-17 01:01N 49°17' W 123°06'0 0.5
2018-May-17 00:28N 49°17' W 123°07'0 0.0
2018-May-16 23:58N 49°17' W 123°07'0 0.0
2018-May-16 23:28N 49°17' W 123°07'0 0.0
2018-May-16 22:58N 49°17' W 123°07'0 0.0
2018-May-16 22:28N 49°17' W 123°07'0 0.0
2018-May-16 21:58N 49°17' W 123°07'0 0.0
2018-May-16 21:28N 49°17' W 123°07'0 0.0
2018-May-16 20:58N 49°17' W 123°07'0 0.0
2018-May-16 20:28N 49°17' W 123°07'0 0.0
2018-May-16 19:58N 49°17' W 123°07'0 0.0
2018-May-16 19:28N 49°17' W 123°07'0 0.0
2018-May-16 18:58N 49°17' W 123°07'0 0.0
2018-May-16 18:28N 49°17' W 123°07'0 0.0
2018-May-16 17:55N 49°17' W 123°07'0 0.0
2018-May-16 17:28N 49°17' W 123°07'0 0.0
2018-May-16 16:58N 49°17' W 123°07'0 0.0
2018-May-16 16:28N 49°17' W 123°07'0 0.0
2018-May-16 15:58N 49°17' W 123°07'0 0.0
2018-May-16 15:28N 49°17' W 123°07'0 0.0
2018-May-16 14:58N 49°17' W 123°07'0 0.0
2018-May-16 14:28N 49°17' W 123°07'0 0.1
2018-May-16 14:01N 49°17' W 123°07'1 2.6
2018-May-16 13:31N 49°19' W 123°08'510.6
2018-May-16 13:00N 49°18' W 123°16'4 6.2
2018-May-16 12:23N 49°18' W 123°22'3 7.6
2018-May-16 12:00N 49°18' W 123°26'5 8.1
2018-May-16 11:25N 49°19' W 123°33'4 8.9
2018-May-16 10:58N 49°19' W 123°39'6 8.8
2018-May-16 10:20N 49°20' W 123°48'4 8.8
2018-May-16 09:52N 49°21' W 123°54'4 8.9
2018-May-16 09:24N 49°22' W 123°60'4 8.4
2018-May-16 08:59N 49°23' W 124°05'4 8.6
2018-May-16 08:30N 49°24' W 124°11'4 8.7
2018-May-16 08:00N 49°25' W 124°18'4 8.7
2018-May-16 07:30N 49°26' W 124°24'4 8.7
2018-May-16 07:00N 49°29' W 124°29'4 8.8
2018-May-16 06:30N 49°33' W 124°33'4 8.5
2018-May-16 06:00N 49°36' W 124°37'4 9.0
2018-May-16 05:31N 49°40' W 124°42'4 8.8
2018-May-16 05:00N 49°43' W 124°46'4 8.8
2018-May-16 04:31N 49°46' W 124°51'5 9.1
2018-May-16 04:00N 49°49' W 124°56'5 8.9
2018-May-16 03:30N 49°52' W 125°01'4 8.9
2018-May-16 03:01N 49°55' W 125°06'510.1
2018-May-16 02:31N 49°59' W 125°12'510.9
2018-May-16 02:00N 50°04' W 125°15'612.1
2018-May-16 01:30N 50°08' W 125°21'916.5
2018-May-16 00:59N 50°17' W 125°24'712.5
2018-May-16 00:26N 50°21' W 125°32'614.7
2018-May-15 23:59N 50°22' W 125°42'1615.2
2018-May-15 22:56N 50°28' W 126°06'715.9
2018-May-15 22:30N 50°29' W 126°16'915.9
2018-May-15 21:58N 50°30' W 126°30'813.6
2018-May-15 21:20N 50°34' W 126°41'617.1
2018-May-15 21:00N 50°38' W 126°48'1120.1
2018-May-15 20:28N 50°43' W 127°03'920.0
2018-May-15 20:00N 50°47' W 127°17'1019.7
2018-May-15 19:31N 50°51' W 127°31'1018.9
2018-May-15 19:00N 50°57' W 127°43'611.9
2018-May-15 18:30N 50°60' W 127°51'713.2
2018-May-15 18:00N 51°03' W 128°00'714.4
2018-May-15 17:30N 51°06' W 128°11'815.7
2018-May-15 17:00N 51°09' W 128°22'815.5
2018-May-15 16:30N 51°12' W 128°33'917.6
2018-May-15 16:00N 51°18' W 128°44'1019.3
2018-May-15 15:30N 51°24' W 128°56'918.5
2018-May-15 15:00N 51°29' W 129°08'918.2
2018-May-15 14:30N 51°35' W 129°20'917.9
2018-May-15 14:00N 51°40' W 129°31'918.6
2018-May-15 13:30N 51°46' W 129°43'918.8
2018-May-15 13:00N 51°53' W 129°54'1019.8
2018-May-15 12:30N 52°02' W 130°01'1020.2
2018-May-15 12:00N 52°11' W 130°07'1019.9
2018-May-15 11:30N 52°20' W 130°12'1020.1
2018-May-15 11:00N 52°30' W 130°18'1020.1
2018-May-15 10:30N 52°39' W 130°23'1019.8
2018-May-15 10:00N 52°48' W 130°29'1019.2
2018-May-15 09:30N 52°58' W 130°34'1019.2
2018-May-15 09:00N 53°07' W 130°40'919.0
2018-May-15 08:30N 53°16' W 130°45'918.9
2018-May-15 08:00N 53°25' W 130°48'1018.7
2018-May-15 07:28N 53°34' W 130°52'918.7
2018-May-15 07:00N 53°43' W 130°56'919.0
2018-May-15 06:30N 53°52' W 130°60'1019.5
2018-May-15 06:00N 54°02' W 131°03'1020.1
2018-May-15 05:30N 54°12' W 131°03'1019.5
2018-May-15 05:00N 54°21' W 131°08'918.6
2018-May-15 04:30N 54°29' W 131°15'917.2
2018-May-15 03:58N 54°39' W 131°14'818.0
2018-May-15 03:30N 54°46' W 131°06'  
2018-May-12 04:20N 58°09' W 135°14'2 6.6
2018-May-12 04:00N 58°09' W 135°18'3 6.9
2018-May-12 03:30N 58°09' W 135°24'2 3.1
2018-May-12 02:56N 58°09' W 135°28'1 1.2
2018-May-12 02:30N 58°08' W 135°28'0 0.8
2018-May-12 01:59N 58°08' W 135°28'0 0.5
2018-May-12 01:27N 58°08' W 135°28'0 0.2
2018-May-12 00:54N 58°08' W 135°28'0 0.0
2018-May-11 15:46N 58°08' W 135°28'0 0.1
2018-May-11 15:23N 58°08' W 135°28'0 0.2
2018-May-11 14:59N 58°08' W 135°28'5 9.4
2018-May-11 14:30N 58°12' W 135°26'612.0
2018-May-11 14:00N 58°15' W 135°36'611.9
2018-May-11 13:30N 58°18' W 135°45'611.8
2018-May-11 13:00N 58°19' W 135°56'611.9
2018-May-11 12:30N 58°19' W 136°08'712.7
2018-May-11 11:58N 58°17' W 136°20'  
2018-May-09 01:52N 46°52' W 124°57'819.4
2018-May-09 01:28N 46°45' W 124°49'919.1
2018-May-09 01:00N 46°38' W 124°41'1019.1
2018-May-09 00:31N 46°31' W 124°33'1019.1
2018-May-09 00:01N 46°24' W 124°24'1019.6
2018-May-08 23:30N 46°16' W 124°16'612.9
2018-May-08 23:01N 46°14' W 124°07'713.8
2018-May-08 22:30N 46°13' W 123°57'4 6.8
2018-May-08 21:56N 46°11' W 123°51'0 0.0
2018-May-08 21:25N 46°11' W 123°51'0 0.0
2018-May-08 20:55N 46°11' W 123°51'0 0.0
2018-May-08 20:26N 46°11' W 123°51'0 0.0
2018-May-08 19:55N 46°11' W 123°51'0 0.0
2018-May-08 19:25N 46°11' W 123°51'0 0.0
2018-May-08 18:55N 46°11' W 123°51'0 0.0
2018-May-08 18:25N 46°11' W 123°51'0 0.0
2018-May-08 17:49N 46°11' W 123°51'0 0.0
2018-May-08 17:25N 46°11' W 123°51'0 0.0
2018-May-08 16:49N 46°11' W 123°51'0 0.0
2018-May-08 16:01N 46°11' W 123°51'0 0.0
2018-May-08 15:55N 46°11' W 123°51'0 0.0
2018-May-08 15:25N 46°11' W 123°51'0 0.0
2018-May-08 14:56N 46°11' W 123°51'0 0.0
2018-May-08 14:26N 46°11' W 123°51'0 0.1
2018-May-08 13:55N 46°11' W 123°52'  

Dump ship's entire track history